Regional Weather Roundup
Issued by NWS Goodland, KS

Home | Current Version | Previous Version | Graphics & Text | Print | Product List | Glossary On
Versions: 1 2 3 4 5 6 7 8 9 10 11 12 13 14 15 16 17 18 19 20 21 22 23 24 25 26 27 28 29 30 31 32 33 34 35 36 37 38 39 40 41 42 43 44 45 46 47 48 49 50
000
ASUS43 KGLD 010259
RWRGLD

GOODLAND FORECAST AREA HOURLY WEATHER ROUNDUP
NATIONAL WEATHER SERVICE GOODLAND KS
900 PM MDT MON AUG 31 2015

...OFFICIAL OBSERVATIONS...

CITY           SKY/WX    TMP DP  RH WIND       PRES   REMARKS
GOODLAND KS    PTCLDY    74  52  46 S9        29.95R
HILL CITY KS   CLEAR     82  51  34 S10       29.90R
IMPERIAL NEB   CLOUDY    77  60  55 NE8       29.94R
MCCOOK NEB     PTCLDY    77  62  59 E7        29.89R
AKRON CO       LGT RAIN  64  59  83 W20       30.12R
BURLINGTON CO  CLOUDY    72  55  55 W23G40    30.05R THUNDER
LIMON CO       CLOUDY    60  58  92 N3        30.16R
$$

...UNOFFICIAL OBSERVATIONS...

CITY           SKY/WX    TMP DP  RH WIND       PRES   REMARKS
COLBY KS       CLEAR     81  55  41 SE10      29.95R
GOVE KS          N/A     79  32  18 MISG        N/A
LENORA KS        N/A     76  32  20 MISG        N/A
NORTON KS      CLEAR     79  45  29 SE7       29.89R
SHARON SPRINGS   N/A     78  54  43 SE10        N/A
TRENTON NEB      N/A     77  32  19 E6          N/A
KIT CARSON CO    N/A     67  60  77 MISG        N/A
YUMA CO          N/A     66  60  80 W16G26      N/A
$$


USA.gov is the U.S. government's official web portal to all federal, state and local government web resources and services.